Time,TemperatureF,DewpointF,PressureIn,WindDirection,WindDirectionDegrees,WindSpeedMPH,WindSpeedGustMPH,Humidity,HourlyPrecipIn,Conditions,Clouds,dailyrainin,SoftwareType,DateUTC
2013-04-29 00:01:00,53.0,51.0,29.87,SW,231,0.0,-999.0,94,-99.99,,,-99.99,,2013-04-29 07:01:00,
2013-04-29 00:11:00,53.0,51.0,29.87,SW,231,0.0,-999.0,94,-99.99,,,-99.99,,2013-04-29 07:11:00,
2013-04-29 00:21:00,53.0,51.0,29.87,SW,230,0.0,-999.0,94,-99.99,,,-99.99,,2013-04-29 07:21:00,
2013-04-29 00:31:00,53.0,51.0,29.87,SW,231,0.0,-999.0,94,-99.99,,,-99.99,,2013-04-29 07:31:00,
2013-04-29 00:41:00,53.0,51.0,29.87,SW,231,0.0,-999.0,94,-99.99,,,-99.99,,2013-04-29 07:41:00,
2013-04-29 00:52:00,53.0,52.0,29.87,SW,231,0.0,-999.0,95,-99.99,,,-99.99,,2013-04-29 07:52:00,
2013-04-29 01:02:00,53.0,52.0,29.87,SW,231,0.0,-999.0,95,-99.99,,,-99.99,,2013-04-29 08:02:00,
2013-04-29 01:11:00,53.0,52.0,29.87,SW,231,0.0,-999.0,95,-99.99,,,-99.99,,2013-04-29 08:11:00,
2013-04-29 01:21:00,53.0,52.0,29.86,SW,230,0.0,-999.0,95,-99.99,,,-99.99,,2013-04-29 08:21:00,
2013-04-29 01:31:00,53.0,52.0,29.86,SW,230,0.0,-999.0,95,-99.99,,,-99.99,,2013-04-29 08:31:00,
2013-04-29 01:41:00,53.0,52.0,29.86,SW,230,0.0,-999.0,95,-99.99,,,-99.99,,2013-04-29 08:41:00,
2013-04-29 01:52:00,53.0,52.0,29.86,SW,230,0.0,-999.0,95,-99.99,,,-99.99,,2013-04-29 08:52:00,
2013-04-29 02:01:00,53.0,52.0,29.86,SW,230,0.0,-999.0,95,-99.99,,,-99.99,,2013-04-29 09:01:00,
2013-04-29 02:11:00,53.0,52.0,29.86,SW,230,0.0,-999.0,95,-99.99,,,-99.99,,2013-04-29 09:11:00,
2013-04-29 02:21:00,53.0,52.0,29.86,SW,231,0.0,-999.0,95,-99.99,,,-99.99,,2013-04-29 09:21:00,
2013-04-29 02:32:00,52.0,51.0,29.86,SW,230,0.0,-999.0,95,-99.99,,,-99.99,,2013-04-29 09:32:00,
2013-04-29 02:42:00,52.0,51.0,29.86,SW,230,0.0,-999.0,95,-99.99,,,-99.99,,2013-04-29 09:42:00,
2013-04-29 02:53:00,52.0,51.0,29.85,SW,231,0.0,-999.0,96,-99.99,,,-99.99,,2013-04-29 09:53:00,
2013-04-29 03:02:00,52.0,51.0,29.85,SW,231,0.0,-999.0,96,-99.99,,,-99.99,,2013-04-29 10:02:00,
2013-04-29 03:12:00,52.0,51.0,29.85,SW,231,0.0,-999.0,96,-99.99,,,-99.99,,2013-04-29 10:12:00,
2013-04-29 03:22:00,52.0,51.0,29.85,SW,231,0.0,-999.0,96,-99.99,,,-99.99,,2013-04-29 10:22:00,
2013-04-29 03:32:00,52.0,51.0,29.85,SW,231,0.0,-999.0,96,-99.99,,,-99.99,,2013-04-29 10:32:00,
2013-04-29 03:41:00,52.0,51.0,29.85,SW,231,0.0,-999.0,96,-99.99,,,-99.99,,2013-04-29 10:41:00,
2013-04-29 03:52:00,52.0,51.0,29.84,SW,231,0.0,-999.0,96,-99.99,,,-99.99,,2013-04-29 10:52:00,
2013-04-29 04:02:00,52.0,51.0,29.85,SW,231,0.0,-999.0,96,-99.99,,,-99.99,,2013-04-29 11:02:00,
2013-04-29 04:11:00,52.0,51.0,29.85,SW,231,0.0,-999.0,96,-99.99,,,-99.99,,2013-04-29 11:11:00,
2013-04-29 04:21:00,52.0,51.0,29.85,SW,230,0.0,-999.0,96,-99.99,,,-99.99,,2013-04-29 11:21:00,
2013-04-29 04:31:00,52.0,51.0,29.85,SW,230,0.0,-999.0,96,-99.99,,,-99.99,,2013-04-29 11:31:00,
2013-04-29 04:41:00,52.0,51.0,29.85,SW,230,0.0,-999.0,96,-99.99,,,-99.99,,2013-04-29 11:41:00,
2013-04-29 04:52:00,52.0,51.0,29.85,SW,231,0.0,-999.0,96,-99.99,,,-99.99,,2013-04-29 11:52:00,
2013-04-29 05:01:00,52.0,51.0,29.85,SW,231,0.0,-999.0,96,-99.99,,,-99.99,,2013-04-29 12:01:00,
2013-04-29 05:11:00,52.0,51.0,29.85,SW,231,0.0,-999.0,96,-99.99,,,-99.99,,2013-04-29 12:11:00,
2013-04-29 05:21:00,52.0,51.0,29.85,SW,231,0.0,-999.0,96,-99.99,,,-99.99,,2013-04-29 12:21:00,
2013-04-29 05:31:00,52.0,51.0,29.85,SW,231,0.0,-999.0,96,-99.99,,,-99.99,,2013-04-29 12:31:00,
2013-04-29 05:41:00,52.0,51.0,29.85,SW,231,0.0,-999.0,96,-99.99,,,-99.99,,2013-04-29 12:41:00,
2013-04-29 05:52:00,52.0,51.0,29.85,SW,231,0.0,-999.0,96,-99.99,,,-99.99,,2013-04-29 12:52:00,
2013-04-29 06:01:00,52.0,51.0,29.85,SW,231,0.0,-999.0,96,-99.99,,,-99.99,,2013-04-29 13:01:00,
2013-04-29 06:11:00,52.0,51.0,29.85,SW,231,0.0,-999.0,96,-99.99,,,-99.99,,2013-04-29 13:11:00,
2013-04-29 06:21:00,52.0,51.0,29.85,SW,231,0.0,-999.0,97,-99.99,,,-99.99,,2013-04-29 13:21:00,
2013-04-29 06:31:00,52.0,51.0,29.85,SW,230,0.0,-999.0,97,-99.99,,,-99.99,,2013-04-29 13:31:00,
2013-04-29 06:41:00,52.0,51.0,29.85,SW,230,0.0,-999.0,97,-99.99,,,-99.99,,2013-04-29 13:41:00,
2013-04-29 06:52:00,52.0,51.0,29.85,SW,230,0.0,-999.0,97,-99.99,,,-99.99,,2013-04-29 13:52:00,
2013-04-29 07:01:00,53.0,52.0,29.86,SW,231,0.0,-999.0,97,-99.99,,,-99.99,,2013-04-29 14:01:00,
2013-04-29 07:11:00,53.0,52.0,29.86,SW,231,0.0,-999.0,97,-99.99,,,-99.99,,2013-04-29 14:11:00,
2013-04-29 07:21:00,53.0,52.0,29.86,SW,230,0.0,-999.0,97,-99.99,,,-99.99,,2013-04-29 14:21:00,
2013-04-29 07:31:00,53.0,52.0,29.87,SW,231,0.0,-999.0,97,-99.99,,,-99.99,,2013-04-29 14:31:00,
2013-04-29 07:42:00,53.0,52.0,29.87,SW,231,0.0,-999.0,97,-99.99,,,-99.99,,2013-04-29 14:42:00,
2013-04-29 07:52:00,53.0,52.0,29.87,SW,231,0.0,-999.0,97,-99.99,,,-99.99,,2013-04-29 14:52:00,
2013-04-29 08:01:00,53.0,52.0,29.87,SW,231,0.0,-999.0,97,-99.99,,,-99.99,,2013-04-29 15:01:00,
2013-04-29 08:12:00,53.0,52.0,29.87,SW,231,0.0,-999.0,97,-99.99,,,-99.99,,2013-04-29 15:12:00,
2013-04-29 08:21:00,54.0,53.0,29.87,SW,231,0.0,-999.0,97,-99.99,,,-99.99,,2013-04-29 15:21:00,
2013-04-29 08:33:00,54.0,53.0,29.87,SW,231,0.0,-999.0,97,-99.99,,,-99.99,,2013-04-29 15:33:00,
2013-04-29 08:42:00,54.0,53.0,29.87,SW,231,0.0,-999.0,97,-99.99,,,-99.99,,2013-04-29 15:42:00,
2013-04-29 08:53:00,55.0,54.0,29.87,SW,231,0.0,-999.0,97,-99.99,,,-99.99,,2013-04-29 15:53:00,
2013-04-29 09:02:00,56.0,55.0,29.87,SW,231,0.0,-999.0,97,-99.99,,,-99.99,,2013-04-29 16:02:00,
2013-04-29 09:12:00,56.0,55.0,29.87,SW,231,0.0,-999.0,97,-99.99,,,-99.99,,2013-04-29 16:12:00,
2013-04-29 09:23:00,58.0,57.0,29.87,SW,230,0.0,-999.0,97,-99.99,,,-99.99,,2013-04-29 16:23:00,
2013-04-29 09:32:00,59.0,58.0,29.87,WSW,237,0.0,-999.0,96,-99.99,,,-99.99,,2013-04-29 16:32:00,
2013-04-29 09:42:00,59.0,58.0,29.87,WSW,237,0.0,-999.0,96,-99.99,,,-99.99,,2013-04-29 16:42:00,
2013-04-29 09:52:00,62.0,59.0,29.87,WSW,237,0.0,-999.0,89,-99.99,,,-99.99,,2013-04-29 16:52:00,
2013-04-29 10:02:00,63.0,58.0,29.87,WSW,237,0.0,-999.0,83,-99.99,,,-99.99,,2013-04-29 17:02:00,
2013-04-29 10:11:00,63.0,58.0,29.87,WSW,237,0.0,-999.0,83,-99.99,,,-99.99,,2013-04-29 17:11:00,
2013-04-29 10:22:00,65.0,58.0,29.87,WSW,255,0.0,-999.0,78,-99.99,,,-99.99,,2013-04-29 17:22:00,
2013-04-29 10:31:00,65.0,57.0,29.86,NW,317,0.0,-999.0,75,-99.99,,,-99.99,,2013-04-29 17:31:00,
2013-04-29 10:42:00,65.0,57.0,29.86,NW,317,0.0,-999.0,75,-99.99,,,-99.99,,2013-04-29 17:42:00,
2013-04-29 10:52:00,67.0,58.0,29.87,WSW,245,0.0,-999.0,74,-99.99,,,-99.99,,2013-04-29 17:52:00,
2013-04-29 11:01:00,68.0,58.0,29.86,West,259,0.0,-999.0,71,-99.99,,,-99.99,,2013-04-29 18:01:00,
2013-04-29 11:12:00,68.0,58.0,29.86,West,259,0.0,-999.0,71,-99.99,,,-99.99,,2013-04-29 18:12:00,
2013-04-29 11:22:00,67.0,58.0,29.86,SW,233,1.0,-999.0,72,-99.99,,,-99.99,,2013-04-29 18:22:00,
2013-04-29 11:31:00,69.0,59.0,29.86,SW,218,0.0,-999.0,71,-99.99,,,-99.99,,2013-04-29 18:31:00,
2013-04-29 11:41:00,69.0,59.0,29.86,SW,218,0.0,-999.0,71,-99.99,,,-99.99,,2013-04-29 18:41:00,
2013-04-29 11:52:00,70.0,59.0,29.86,WSW,242,0.0,-999.0,68,-99.99,,,-99.99,,2013-04-29 18:52:00,
2013-04-29 12:01:00,69.0,58.0,29.85,SW,236,1.0,-999.0,67,-99.99,,,-99.99,,2013-04-29 19:01:00,
2013-04-29 12:11:00,69.0,58.0,29.85,SW,236,1.0,-999.0,67,-99.99,,,-99.99,,2013-04-29 19:11:00,
2013-04-29 12:21:00,70.0,59.0,29.85,SW,219,0.0,-999.0,67,-99.99,,,-99.99,,2013-04-29 19:21:00,
2013-04-29 12:31:00,71.0,59.0,29.85,WSW,245,0.0,-999.0,66,-99.99,,,-99.99,,2013-04-29 19:31:00,
2013-04-29 12:41:00,71.0,59.0,29.85,WSW,245,0.0,-999.0,66,-99.99,,,-99.99,,2013-04-29 19:41:00,
2013-04-29 12:52:00,71.0,59.0,29.84,SW,229,1.0,-999.0,66,-99.99,,,-99.99,,2013-04-29 19:52:00,
2013-04-29 13:01:00,71.0,59.0,29.84,SSW,213,1.0,-999.0,67,-99.99,,,-99.99,,2013-04-29 20:01:00,
2013-04-29 13:11:00,71.0,59.0,29.84,SSW,213,1.0,-999.0,67,-99.99,,,-99.99,,2013-04-29 20:11:00,
2013-04-29 13:21:00,71.0,60.0,29.83,NW,309,0.0,-999.0,68,-99.99,,,-99.99,,2013-04-29 20:21:00,
2013-04-29 13:32:00,70.0,59.0,29.83,SW,217,1.0,-999.0,68,-99.99,,,-99.99,,2013-04-29 20:32:00,
2013-04-29 13:42:00,70.0,59.0,29.83,SW,217,1.0,-999.0,68,-99.99,,,-99.99,,2013-04-29 20:42:00,
2013-04-29 13:52:00,70.0,59.0,29.83,SSW,206,1.0,-999.0,69,-99.99,,,-99.99,,2013-04-29 20:52:00,
2013-04-29 14:01:00,70.0,59.0,29.83,SW,217,0.0,-999.0,69,-99.99,,,-99.99,,2013-04-29 21:01:00,
2013-04-29 14:11:00,70.0,59.0,29.83,SW,217,0.0,-999.0,69,-99.99,,,-99.99,,2013-04-29 21:11:00,
2013-04-29 14:21:00,70.0,59.0,29.83,WSW,249,0.0,-999.0,68,-99.99,,,-99.99,,2013-04-29 21:21:00,
2013-04-29 14:32:00,70.0,59.0,29.82,SW,216,0.0,-999.0,67,-99.99,,,-99.99,,2013-04-29 21:32:00,
2013-04-29 14:42:00,70.0,59.0,29.82,SW,216,0.0,-999.0,67,-99.99,,,-99.99,,2013-04-29 21:42:00,
2013-04-29 14:53:00,69.0,58.0,29.82,West,265,1.0,-999.0,69,-99.99,,,-99.99,,2013-04-29 21:53:00,
2013-04-29 15:02:00,70.0,59.0,29.81,SSW,200,1.0,-999.0,69,-99.99,,,-99.99,,2013-04-29 22:02:00,
2013-04-29 15:12:00,70.0,59.0,29.81,SSW,200,1.0,-999.0,69,-99.99,,,-99.99,,2013-04-29 22:12:00,
2013-04-29 15:23:00,70.0,59.0,29.81,WSW,242,1.0,-999.0,67,-99.99,,,-99.99,,2013-04-29 22:23:00,
2013-04-29 15:32:00,70.0,59.0,29.81,WSW,242,1.0,-999.0,67,-99.99,,,-99.99,,2013-04-29 22:32:00,
2013-04-29 15:42:00,70.0,59.0,29.81,WSW,242,1.0,-999.0,67,-99.99,,,-99.99,,2013-04-29 22:42:00,
2013-04-29 15:52:00,70.0,59.0,29.80,SW,218,0.0,-999.0,67,-99.99,,,-99.99,,2013-04-29 22:52:00,
2013-04-29 16:02:00,70.0,58.0,29.78,SE,144,0.0,-999.0,66,-99.99,,,-99.99,,2013-04-29 23:02:00,
2013-04-29 16:11:00,70.0,58.0,29.78,SE,144,0.0,-999.0,66,-99.99,,,-99.99,,2013-04-29 23:11:00,
2013-04-29 16:22:00,70.0,59.0,29.78,WSW,246,0.0,-999.0,67,-99.99,,,-99.99,,2013-04-29 23:22:00,
2013-04-29 16:31:00,70.0,59.0,29.78,SSW,206,1.0,-999.0,67,-99.99,,,-99.99,,2013-04-29 23:31:00,
2013-04-29 16:41:00,70.0,59.0,29.78,SSW,206,1.0,-999.0,67,-99.99,,,-99.99,,2013-04-29 23:41:00,
2013-04-29 16:52:00,69.0,58.0,29.78,WSW,242,0.0,-999.0,68,-99.99,,,-99.99,,2013-04-29 23:52:00,
2013-04-29 17:01:00,68.0,57.0,29.78,SSW,207,0.0,-999.0,69,-99.99,,,-99.99,,2013-04-30 00:01:00,
2013-04-29 17:11:00,68.0,57.0,29.78,SSW,207,0.0,-999.0,69,-99.99,,,-99.99,,2013-04-30 00:11:00,
2013-04-29 17:21:00,67.0,57.0,29.77,WSW,246,1.0,-999.0,71,-99.99,,,-99.99,,2013-04-30 00:21:00,
2013-04-29 17:31:00,66.0,57.0,29.77,SW,217,1.0,-999.0,73,-99.99,,,-99.99,,2013-04-30 00:31:00,
2013-04-29 17:41:00,66.0,57.0,29.77,SW,217,1.0,-999.0,73,-99.99,,,-99.99,,2013-04-30 00:41:00,
2013-04-29 17:52:00,65.0,56.0,29.77,SW,226,0.0,-999.0,74,-99.99,,,-99.99,,2013-04-30 00:52:00,
2013-04-29 18:01:00,63.0,56.0,29.77,SW,233,0.0,-999.0,77,-99.99,,,-99.99,,2013-04-30 01:01:00,
2013-04-29 18:11:00,63.0,56.0,29.77,SW,233,0.0,-999.0,77,-99.99,,,-99.99,,2013-04-30 01:11:00,
2013-04-29 18:21:00,63.0,56.0,29.77,SW,233,0.0,-999.0,78,-99.99,,,-99.99,,2013-04-30 01:21:00,
2013-04-29 18:31:00,62.0,56.0,29.77,SW,232,0.0,-999.0,80,-99.99,,,-99.99,,2013-04-30 01:31:00,
2013-04-29 18:41:00,62.0,56.0,29.77,SW,232,0.0,-999.0,80,-99.99,,,-99.99,,2013-04-30 01:41:00,
2013-04-29 18:51:00,61.0,55.0,29.77,SW,232,0.0,-999.0,81,-99.99,,,-99.99,,2013-04-30 01:51:00,
2013-04-29 19:01:00,60.0,54.0,29.77,SW,232,0.0,-999.0,82,-99.99,,,-99.99,,2013-04-30 02:01:00,
2013-04-29 19:11:00,60.0,54.0,29.77,SW,232,0.0,-999.0,82,-99.99,,,-99.99,,2013-04-30 02:11:00,
2013-04-29 19:21:00,59.0,54.0,29.77,SW,232,0.0,-999.0,84,-99.99,,,-99.99,,2013-04-30 02:21:00,
2013-04-29 19:31:00,59.0,54.0,29.78,SW,232,0.0,-999.0,85,-99.99,,,-99.99,,2013-04-30 02:31:00,
2013-04-29 19:41:00,59.0,54.0,29.78,SW,232,0.0,-999.0,85,-99.99,,,-99.99,,2013-04-30 02:41:00,
2013-04-29 19:51:00,58.0,54.0,29.78,SW,232,0.0,-999.0,87,-99.99,,,-99.99,,2013-04-30 02:51:00,
2013-04-29 20:01:00,57.0,53.0,29.78,SW,232,0.0,-999.0,88,-99.99,,,-99.99,,2013-04-30 03:01:00,
2013-04-29 20:11:00,56.0,53.0,29.78,SW,232,0.0,-999.0,89,-99.99,,,-99.99,,2013-04-30 03:11:00,
2013-04-29 20:21:00,56.0,53.0,29.78,SW,232,0.0,-999.0,89,-99.99,,,-99.99,,2013-04-30 03:21:00,
2013-04-29 20:32:00,56.0,53.0,29.79,SW,232,0.0,-999.0,90,-99.99,,,-99.99,,2013-04-30 03:32:00,
2013-04-29 20:42:00,56.0,53.0,29.79,SW,232,0.0,-999.0,90,-99.99,,,-99.99,,2013-04-30 03:42:00,
2013-04-29 20:52:00,56.0,53.0,29.79,SW,232,0.0,-999.0,91,-99.99,,,-99.99,,2013-04-30 03:52:00,
2013-04-29 21:02:00,55.0,52.0,29.79,SW,232,0.0,-999.0,91,-99.99,,,-99.99,,2013-04-30 04:02:00,
2013-04-29 21:11:00,55.0,52.0,29.79,SW,232,0.0,-999.0,91,-99.99,,,-99.99,,2013-04-30 04:11:00,
2013-04-29 21:22:00,55.0,53.0,29.79,SW,232,0.0,-999.0,92,-99.99,,,-99.99,,2013-04-30 04:22:00,
2013-04-29 21:32:00,55.0,53.0,29.80,SW,232,0.0,-999.0,92,-99.99,,,-99.99,,2013-04-30 04:32:00,
2013-04-29 21:42:00,55.0,53.0,29.80,SW,232,0.0,-999.0,92,-99.99,,,-99.99,,2013-04-30 04:42:00,
2013-04-29 21:52:00,55.0,53.0,29.80,SW,232,0.0,-999.0,93,-99.99,,,-99.99,,2013-04-30 04:52:00,
2013-04-29 22:02:00,54.0,52.0,29.80,SW,232,0.0,-999.0,93,-99.99,,,-99.99,,2013-04-30 05:02:00,
2013-04-29 22:11:00,54.0,52.0,29.80,SW,232,0.0,-999.0,93,-99.99,,,-99.99,,2013-04-30 05:11:00,
2013-04-29 22:21:00,54.0,52.0,29.80,SW,232,0.0,-999.0,93,-99.99,,,-99.99,,2013-04-30 05:21:00,
2013-04-29 22:31:00,55.0,53.0,29.80,SW,232,0.0,-999.0,94,-99.99,,,-99.99,,2013-04-30 05:31:00,
2013-04-29 22:42:00,55.0,53.0,29.80,SW,232,0.0,-999.0,94,-99.99,,,-99.99,,2013-04-30 05:42:00,
2013-04-29 22:51:00,55.0,53.0,29.80,SW,232,0.0,-999.0,94,-99.99,,,-99.99,,2013-04-30 05:51:00,
2013-04-29 23:01:00,55.0,53.0,29.81,SW,232,0.0,-999.0,94,-99.99,,,-99.99,,2013-04-30 06:01:00,
2013-04-29 23:11:00,55.0,53.0,29.81,SW,232,0.0,-999.0,94,-99.99,,,-99.99,,2013-04-30 06:11:00,
2013-04-29 23:21:00,55.0,53.0,29.81,SW,232,0.0,-999.0,94,-99.99,,,-99.99,,2013-04-30 06:21:00,
2013-04-29 23:31:00,55.0,53.0,29.81,SW,232,0.0,-999.0,94,-99.99,,,-99.99,,2013-04-30 06:31:00,
2013-04-29 23:41:00,55.0,53.0,29.81,SW,232,0.0,-999.0,94,-99.99,,,-99.99,,2013-04-30 06:41:00,
2013-04-29 23:52:00,55.0,53.0,29.82,SW,232,0.0,-999.0,94,-99.99,,,-99.99,,2013-04-30 06:52:00,